Weather History for New York, NY

Change the Weather History Date:

Thursday, February 14, 2013

  Actual Average Record
Temperature  
Mean Temperature 40 °F 35 °F  
Max Temperature 46 °F 42 °F 60 °F (1949)
Min Temperature 34 °F 28 °F 1 °F (1979)
Degree Days  
Heating Degree Days 25 30  
Month to date heating degree days 455 431  
Since 1 July heating degree days 2804 3030  
Cooling Degree Days 0 0  
Month to date cooling degree days 0 0  
Year to date cooling degree days 0 0  
Moisture  
Dew Point 28 °F    
Average Humidity 60    
Maximum Humidity 82    
Minimum Humidity 37    
Precipitation  
Precipitation T in 0.09 in 0.99 in (1950)
Month to date precipitation 1.49 1.32  
Year to date precipitation 4.13 4.49  
Snow  
Snow T in 0.40 in 2.80 in (2007)
Month to date snowfall 13.1 4.6  
Since 1 July snowfall 16.1 17.5  
Snow Depth 0.00 in    
Sea Level Pressure  
Sea Level Pressure 29.90 in    
Wind  
Wind Speed 8 mph (WNW)    
Max Wind Speed 16 mph    
Max Gust Speed 18 mph    
Visibility 10 miles    
Events Rain , Snow    
T = Trace of Precipitation, MM = Missing Value Source: NWS Daily Summary

Daily Weather History Graph

Daily Weather History Graph

Search for Another Location

Airport:

Trip Planner

Search our weather history database for the weather conditions in past years. The results will help you decide how hot, cold, wet, or windy it might be!

Date:

Astronomy

Feb. 14, 2013 Rise Set
Actual Time 6:50 AM EST 5:29 PM EST
Civil Twilight 6:22 AM EST 5:57 PM EST
Nautical Twilight 5:50 AM EST 6:29 PM EST
Astronomical Twilight 5:18 AM EST 7:01 PM EST
Moon 8:49 AM EST (2/14) 10:31 PM EST (2/14)
Length of Visible Light 11h 35m
Length of Day
10h 38m
Waxing Crescent, 21% of the Moon is Illuminated
Feb 14
Waxing Crescent
Feb 17
First Quarter
Feb 25
Full
Mar 4
Last Quarter
Mar 11
New

Hourly Weather History & Observations

Time (EST) Temp. Windchill Dew Point Humidity Pressure Visibility Wind Dir Wind Speed Gust Speed Precip Events Conditions
12:02 AM 33.8 °F 26.4 °F 30.2 °F 87% 29.71 in 6.0 mi North 9.2 mph - 0.01 in Rain , Snow Light Rain
12:51 AM 35.1 °F 27.9 °F 30.9 °F 85% 29.72 in 9.0 mi North 9.2 mph - 0.01 in Rain , Snow Light Rain
1:51 AM 35.6 °F 29.2 °F 30.2 °F 81% 29.73 in 10.0 mi North 8.1 mph - N/A Rain , Snow Light Rain
2:03 AM 35.6 °F 28.0 °F 30.2 °F 81% 29.74 in 10.0 mi North 10.4 mph - 0.00 in   Overcast
2:51 AM 36.0 °F 29.0 °F 30.9 °F 82% 29.77 in 10.0 mi NNW 9.2 mph - 0.00 in   Overcast
3:51 AM 35.6 °F 28.6 °F 30.2 °F 81% 29.79 in 10.0 mi NNW 9.2 mph - N/A   Overcast
4:51 AM 35.1 °F 27.4 °F 30.0 °F 82% 29.81 in 10.0 mi NNW 10.4 mph - N/A   Scattered Clouds
5:51 AM 35.1 °F 28.6 °F 28.9 °F 78% 29.82 in 10.0 mi NNW 8.1 mph - N/A   Scattered Clouds
6:51 AM 35.1 °F 29.3 °F 28.0 °F 76% 29.86 in 10.0 mi WNW 6.9 mph - N/A   Clear
7:51 AM 35.1 °F 28.6 °F 27.0 °F 72% 29.91 in 10.0 mi NW 8.1 mph - N/A   Clear
8:51 AM 37.0 °F 31.0 °F 25.0 °F 62% 29.93 in 10.0 mi NW 8.1 mph - N/A   Partly Cloudy
9:51 AM 37.9 °F 30.9 °F 23.0 °F 55% 29.94 in 10.0 mi NW 10.4 mph - N/A   Partly Cloudy
10:51 AM 39.9 °F 34.5 °F 23.0 °F 51% 29.96 in 10.0 mi North 8.1 mph - N/A   Scattered Clouds
11:51 AM 42.8 °F 40.1 °F 23.0 °F 46% 29.95 in 10.0 mi NE 4.6 mph - N/A   Scattered Clouds
12:51 PM 42.1 °F 40.2 °F 23.0 °F 47% 29.94 in 10.0 mi East 3.5 mph - N/A   Partly Cloudy
1:51 PM 45.0 °F 43.5 °F 24.1 °F 44% 29.94 in 10.0 mi Variable 3.5 mph - N/A   Partly Cloudy
2:51 PM 46.0 °F 41.9 °F 23.0 °F 40% 29.93 in 10.0 mi SW 8.1 mph - N/A   Clear
3:51 PM 46.0 °F 41.4 °F 21.9 °F 39% 29.94 in 10.0 mi SSW 9.2 mph - N/A   Clear
4:51 PM 44.1 °F 37.1 °F 26.1 °F 49% 29.96 in 10.0 mi South 15.0 mph - N/A   Partly Cloudy
5:51 PM 42.1 °F 35.2 °F 30.9 °F 65% 29.97 in 10.0 mi South 12.7 mph - N/A   Scattered Clouds
6:51 PM 39.9 °F 33.4 °F 30.0 °F 68% 29.99 in 10.0 mi South 10.4 mph - N/A   Mostly Cloudy
7:51 PM 39.9 °F 35.1 °F 33.1 °F 77% 29.99 in 9.0 mi South 6.9 mph - N/A   Scattered Clouds
8:51 PM 41.0 °F 36.4 °F 33.1 °F 73% 29.99 in 9.0 mi SSW 6.9 mph - N/A   Scattered Clouds
9:51 PM 41.0 °F 36.4 °F 32.0 °F 70% 29.99 in 9.0 mi SSW 6.9 mph - N/A   Scattered Clouds
10:51 PM 39.9 °F 35.1 °F 32.0 °F 73% 30.00 in 9.0 mi SSW 6.9 mph - N/A   Scattered Clouds
11:51 PM 39.9 °F 36.7 °F 28.9 °F 65% 30.00 in 10.0 mi SSW 4.6 mph - N/A   Scattered Clouds